Station Historical Data
Daily Summary for February 6, 2012 Units:  English    Metric   Both
« Previous Day
Next Day »
Daily Weekly Monthly Yearly Custom
  High: Low: Average:
Temperature: 53.5 °F 38.8 °F 45.4 °F
Dew Point: 42.7 °F 35.8 °F 40.2 °F
Humidity: 96% 60% 83%
Wind Speed: 9.0mph 0.0mph 2.7mph
Wind Gust: 11.0mph - -
Wind- - WSW
Pressure: 30.26 in 30.17 in -
Precipitation: 0.00 in    
Historical Graphs
 
 
Tabular Data for February 6, 2012
Time Temperature Dew Point Pressure Wind Wind Speed Wind Gust Humidity Rainfall Rate (Hourly) Conditions
00:00 42.8 °F 41.2 °F 30.18 in NW 1.0 mph 2.0 mph 94% 0.00 in
00:01 42.8 °F 41.2 °F 30.18 in NW 2.0 mph 2.0 mph 94% 0.00 in
00:06 42.8 °F 41.2 °F 30.18 in NW 2.0 mph 2.0 mph 94% 0.00 in
00:11 42.7 °F 41.1 °F 30.18 in NW 2.0 mph 3.0 mph 94% 0.00 in
00:16 42.8 °F 41.2 °F 30.18 in NW 1.0 mph 2.0 mph 94% 0.00 in
00:21 42.9 °F 41.6 °F 30.18 in NW 2.0 mph 2.0 mph 95% 0.00 in
00:26 43.0 °F 41.7 °F 30.18 in NW 1.0 mph 2.0 mph 95% 0.00 in
00:31 43.0 °F 41.4 °F 30.18 in NW 2.0 mph 2.0 mph 94% 0.00 in
00:36 43.0 °F 41.7 °F 30.18 in NW 2.0 mph 3.0 mph 95% 0.00 in
00:41 43.1 °F 41.8 °F 30.18 in NNW 2.0 mph 4.0 mph 95% 0.00 in
00:46 43.2 °F 41.9 °F 30.19 in NW 2.0 mph 3.0 mph 95% 0.00 in
00:51 43.3 °F 42.0 °F 30.19 in WNW 2.0 mph 3.0 mph 95% 0.00 in
00:56 43.4 °F 42.1 °F 30.19 in WNW 1.0 mph 3.0 mph 95% 0.00 in
01:02 43.4 °F 42.1 °F 30.19 in Calm   1.0 mph 95% 0.00 in
01:07 43.6 °F 42.3 °F 30.19 in West 1.0 mph 1.0 mph 95% 0.00 in
01:12 43.7 °F 42.4 °F 30.20 in West 1.0 mph 2.0 mph 95% 0.00 in
01:17 43.7 °F 42.4 °F 30.20 in NW 2.0 mph 2.0 mph 95% 0.00 in
01:22 43.7 °F 42.4 °F 30.20 in NW 2.0 mph 2.0 mph 95% 0.00 in
01:27 43.7 °F 42.4 °F 30.20 in NW 1.0 mph 1.0 mph 95% 0.00 in
01:32 43.7 °F 42.4 °F 30.19 in NW 1.0 mph 2.0 mph 95% 0.00 in
01:37 43.6 °F 42.3 °F 30.19 in Calm   1.0 mph 95% 0.00 in
01:42 43.6 °F 42.3 °F 30.19 in NW 2.0 mph 3.0 mph 95% 0.00 in
01:47 43.5 °F 42.2 °F 30.19 in NNW 4.0 mph 6.0 mph 95% 0.00 in
01:52 43.7 °F 42.1 °F 30.19 in NW 5.0 mph 8.0 mph 94% 0.00 in
01:57 44.0 °F 42.1 °F 30.19 in North 4.0 mph 6.0 mph 93% 0.00 in
02:02 44.1 °F 42.2 °F 30.19 in NNW 4.0 mph 7.0 mph 93% 0.00 in
02:07 44.2 °F 42.0 °F 30.19 in North 7.0 mph 7.0 mph 92% 0.00 in
02:12 44.3 °F 42.1 °F 30.19 in NNW 3.0 mph 4.0 mph 92% 0.00 in
02:17 44.3 °F 42.1 °F 30.19 in NNW 5.0 mph 5.0 mph 92% 0.00 in
02:22 44.3 °F 42.1 °F 30.19 in NNW 2.0 mph 5.0 mph 92% 0.00 in
02:27 44.3 °F 42.1 °F 30.19 in NNW 4.0 mph 4.0 mph 92% 0.00 in
02:32 44.2 °F 42.0 °F 30.18 in NNW 3.0 mph 5.0 mph 92% 0.00 in
02:37 44.2 °F 42.0 °F 30.18 in NNW 3.0 mph 4.0 mph 92% 0.00 in
02:42 44.1 °F 41.9 °F 30.18 in NNW 2.0 mph 4.0 mph 92% 0.00 in
02:47 44.0 °F 41.8 °F 30.19 in North 3.0 mph 4.0 mph 92% 0.00 in
02:52 44.0 °F 41.8 °F 30.19 in NNW 3.0 mph 4.0 mph 92% 0.00 in
02:57 44.0 °F 41.8 °F 30.19 in North 2.0 mph 3.0 mph 92% 0.00 in
03:02 43.9 °F 41.7 °F 30.19 in North 2.0 mph 3.0 mph 92% 0.00 in
03:07 43.9 °F 42.0 °F 30.18 in NNW 1.0 mph 4.0 mph 93% 0.00 in
03:12 43.9 °F 42.0 °F 30.19 in NNW 2.0 mph 2.0 mph 93% 0.00 in
03:17 43.9 °F 42.0 °F 30.19 in North 2.0 mph 4.0 mph 93% 0.00 in
03:22 43.9 °F 42.0 °F 30.19 in NNW 1.0 mph 3.0 mph 93% 0.00 in
03:28 43.9 °F 42.0 °F 30.19 in North 3.0 mph 3.0 mph 93% 0.00 in
03:33 43.8 °F 41.9 °F 30.19 in NW 3.0 mph 3.0 mph 93% 0.00 in
03:38 43.9 °F 42.0 °F 30.19 in NNW 2.0 mph 5.0 mph 93% 0.00 in
03:43 43.8 °F 41.9 °F 30.19 in North 4.0 mph 4.0 mph 93% 0.00 in
03:48 43.8 °F 41.9 °F 30.19 in NNE 3.0 mph 3.0 mph 93% 0.00 in
03:53 43.8 °F 41.9 °F 30.19 in NNW 2.0 mph 4.0 mph 93% 0.00 in
03:58 43.8 °F 41.9 °F 30.19 in NNW 3.0 mph 4.0 mph 93% 0.00 in
04:03 43.9 °F 42.0 °F 30.19 in NW 2.0 mph 3.0 mph 93% 0.00 in
04:08 43.9 °F 42.0 °F 30.19 in NNW 1.0 mph 4.0 mph 93% 0.00 in
04:13 43.8 °F 41.9 °F 30.19 in NW 2.0 mph 2.0 mph 93% 0.00 in
04:18 43.8 °F 41.9 °F 30.19 in NW 3.0 mph 5.0 mph 93% 0.00 in
04:23 43.8 °F 41.9 °F 30.19 in NNW 3.0 mph 4.0 mph 93% 0.00 in
04:28 43.7 °F 41.8 °F 30.19 in NNW 2.0 mph 3.0 mph 93% 0.00 in
04:33 43.7 °F 41.8 °F 30.19 in NW 1.0 mph 3.0 mph 93% 0.00 in
04:38 43.7 °F 41.8 °F 30.19 in NNW 3.0 mph 3.0 mph 93% 0.00 in
04:43 43.7 °F 41.8 °F 30.18 in NNW 2.0 mph 3.0 mph 93% 0.00 in
04:48 43.7 °F 41.8 °F 30.19 in NW 2.0 mph 3.0 mph 93% 0.00 in
04:53 43.7 °F 41.8 °F 30.19 in NNW 1.0 mph 4.0 mph 93% 0.00 in
04:58 43.7 °F 41.8 °F 30.18 in North 2.0 mph 3.0 mph 93% 0.00 in
05:03 43.6 °F 41.7 °F 30.18 in North 3.0 mph 3.0 mph 93% 0.00 in
05:08 43.6 °F 41.7 °F 30.19 in NNW 3.0 mph 4.0 mph 93% 0.00 in
05:13 43.6 °F 41.7 °F 30.18 in North 2.0 mph 3.0 mph 93% 0.00 in
05:18 43.5 °F 41.6 °F 30.18 in North 2.0 mph 2.0 mph 93% 0.00 in
05:23 43.5 °F 41.6 °F 30.19 in North 1.0 mph 3.0 mph 93% 0.00 in
05:28 43.5 °F 41.6 °F 30.19 in NNE 1.0 mph 3.0 mph 93% 0.00 in
05:33 43.5 °F 41.6 °F 30.19 in North 1.0 mph 2.0 mph 93% 0.00 in
05:38 43.4 °F 41.5 °F 30.19 in Calm   2.0 mph 93% 0.00 in
05:43 43.4 °F 41.5 °F 30.19 in Calm   2.0 mph 93% 0.00 in
05:48 43.3 °F 41.4 °F 30.19 in North 1.0 mph 1.0 mph 93% 0.00 in
05:53 43.3 °F 41.4 °F 30.20 in NNW 1.0 mph 1.0 mph 93% 0.00 in
05:58 43.3 °F 41.7 °F 30.20 in NNW 1.0 mph 1.0 mph 94% 0.00 in
06:03 43.3 °F 41.7 °F 30.20 in Calm   2.0 mph 94% 0.00 in
06:08 43.3 °F 41.7 °F 30.20 in NW 2.0 mph 2.0 mph 94% 0.00 in
06:13 43.3 °F 41.7 °F 30.20 in Calm   2.0 mph 94% 0.00 in
06:18 43.3 °F 41.7 °F 30.20 in NW 2.0 mph 4.0 mph 94% 0.00 in
06:23 43.4 °F 41.8 °F 30.20 in NW 3.0 mph 4.0 mph 94% 0.00 in
06:28 43.4 °F 41.5 °F 30.20 in WNW 4.0 mph 5.0 mph 93% 0.00 in
06:33 43.4 °F 41.5 °F 30.20 in NW 3.0 mph 5.0 mph 93% 0.00 in
06:38 43.3 °F 41.4 °F 30.20 in NW 2.0 mph 6.0 mph 93% 0.00 in
06:43 43.2 °F 41.3 °F 30.20 in WNW 3.0 mph 5.0 mph 93% 0.00 in
06:48 43.1 °F 41.2 °F 30.20 in NW 3.0 mph 6.0 mph 93% 0.00 in
06:54 42.8 °F 40.9 °F 30.20 in WNW 3.0 mph 4.0 mph 93% 0.00 in
06:59 42.4 °F 40.5 °F 30.20 in WNW 3.0 mph 5.0 mph 93% 0.00 in
07:04 42.2 °F 40.3 °F 30.20 in WNW 3.0 mph 4.0 mph 93% 0.00 in
07:09 42.0 °F 40.1 °F 30.20 in WNW 2.0 mph 4.0 mph 93% 0.00 in
07:14 41.7 °F 39.8 °F 30.20 in WNW 3.0 mph 4.0 mph 93% 0.00 in
07:19 41.6 °F 39.7 °F 30.21 in NW 2.0 mph 3.0 mph 93% 0.00 in
07:24 41.3 °F 39.7 °F 30.21 in NW 2.0 mph 3.0 mph 94% 0.00 in
07:29 41.1 °F 39.5 °F 30.21 in WNW 1.0 mph 2.0 mph 94% 0.00 in
07:34 40.9 °F 39.3 °F 30.21 in NW 2.0 mph 2.0 mph 94% 0.00 in
07:39 40.8 °F 39.2 °F 30.21 in Calm   1.0 mph 94% 0.00 in
07:44 40.8 °F 39.5 °F 30.21 in NW 1.0 mph 2.0 mph 95% 0.00 in
07:49 40.7 °F 39.4 °F 30.21 in NW 1.0 mph 1.0 mph 95% 0.00 in
07:54 40.6 °F 39.3 °F 30.22 in NW 1.0 mph 1.0 mph 95% 0.00 in
07:59 40.4 °F 39.1 °F 30.22 in NW 1.0 mph 1.0 mph 95% 0.00 in
08:04 40.4 °F 39.1 °F 30.22 in NW 1.0 mph 2.0 mph 95% 0.00 in
08:09 40.5 °F 39.2 °F 30.22 in NW 1.0 mph 2.0 mph 95% 0.00 in
08:14 40.5 °F 39.2 °F 30.23 in NW 2.0 mph 2.0 mph 95% 0.00 in
08:19 40.6 °F 39.3 °F 30.23 in NW 3.0 mph 3.0 mph 95% 0.00 in
08:24 40.7 °F 39.4 °F 30.23 in NW 4.0 mph 4.0 mph 95% 0.00 in
08:29 41.1 °F 39.8 °F 30.23 in WNW 3.0 mph 5.0 mph 95% 0.00 in
08:34 41.3 °F 40.0 °F 30.23 in WNW 4.0 mph 5.0 mph 95% 0.00 in
08:39 41.5 °F 40.2 °F 30.24 in WNW 5.0 mph 5.0 mph 95% 0.00 in
08:44 41.6 °F 40.3 °F 30.24 in WNW 3.0 mph 4.0 mph 95% 0.00 in
08:49 41.8 °F 40.5 °F 30.24 in NW 3.0 mph 5.0 mph 95% 0.00 in
08:54 41.9 °F 40.6 °F 30.24 in West 2.0 mph 4.0 mph 95% 0.00 in
08:59 41.9 °F 40.6 °F 30.24 in WNW 3.0 mph 5.0 mph 95% 0.00 in
09:04 41.8 °F 40.5 °F 30.24 in WNW 3.0 mph 4.0 mph 95% 0.00 in
09:09 41.6 °F 40.3 °F 30.25 in NW 5.0 mph 5.0 mph 95% 0.00 in
09:14 41.5 °F 40.2 °F 30.25 in NW 4.0 mph 6.0 mph 95% 0.00 in
09:19 41.5 °F 40.2 °F 30.25 in WNW 4.0 mph 5.0 mph 95% 0.00 in
09:24 41.7 °F 40.4 °F 30.25 in NW 3.0 mph 4.0 mph 95% 0.00 in
09:29 41.9 °F 40.8 °F 30.25 in WNW 3.0 mph 4.0 mph 96% 0.00 in
09:34 42.2 °F 40.9 °F 30.25 in NW 3.0 mph 4.0 mph 95% 0.00 in
09:39 42.3 °F 41.0 °F 30.25 in WNW 4.0 mph 6.0 mph 95% 0.00 in
09:44 42.7 °F 41.4 °F 30.25 in WNW 3.0 mph 3.0 mph 95% 0.00 in
09:50 43.1 °F 41.5 °F 30.25 in WNW 7.0 mph 7.0 mph 94% 0.00 in
09:55 43.1 °F 40.9 °F 30.25 in NW 2.0 mph 6.0 mph 92% 0.00 in
10:00 43.2 °F 40.8 °F 30.25 in WNW 3.0 mph 7.0 mph 91% 0.00 in
10:05 43.4 °F 41.0 °F 30.26 in WNW 3.0 mph 5.0 mph 91% 0.00 in
10:10 44.1 °F 41.4 °F 30.26 in NNE 3.0 mph 5.0 mph 90% 0.00 in
10:15 44.7 °F 41.7 °F 30.25 in NNE 5.0 mph 7.0 mph 89% 0.00 in
10:20 45.0 °F 41.7 °F 30.26 in North 2.0 mph 4.0 mph 88% 0.00 in
10:25 45.7 °F 41.8 °F 30.26 in NW 1.0 mph 4.0 mph 86% 0.00 in
10:30 45.4 °F 41.2 °F 30.26 in WNW 4.0 mph 5.0 mph 85% 0.00 in
10:35 45.3 °F 41.1 °F 30.26 in West 3.0 mph 4.0 mph 85% 0.00 in
10:40 45.3 °F 40.8 °F 30.26 in NW 5.0 mph 5.0 mph 84% 0.00 in
10:45 45.4 °F 40.9 °F 30.26 in WNW 3.0 mph 4.0 mph 84% 0.00 in
10:50 45.7 °F 41.5 °F 30.26 in NW 3.0 mph 3.0 mph 85% 0.00 in
10:55 45.6 °F 40.7 °F 30.26 in NNW 4.0 mph 4.0 mph 83% 0.00 in
11:00 45.6 °F 40.7 °F 30.26 in NNE 5.0 mph 6.0 mph 83% 0.00 in
11:05 46.2 °F 41.0 °F 30.26 in NNE 4.0 mph 6.0 mph 82% 0.00 in
11:10 47.2 °F 42.0 °F 30.26 in NW 7.0 mph 7.0 mph 82% 0.00 in
11:15 48.0 °F 41.5 °F 30.26 in NNW 5.0 mph 9.0 mph 78% 0.00 in
11:20 48.3 °F 42.1 °F 30.26 in North 6.0 mph 6.0 mph 79% 0.00 in
11:25 48.7 °F 42.2 °F 30.26 in NW 2.0 mph 6.0 mph 78% 0.00 in
11:31 48.9 °F 41.7 °F 30.25 in WNW 2.0 mph 4.0 mph 76% 0.00 in
11:36 49.3 °F 42.1 °F 30.25 in North 6.0 mph 6.0 mph 76% 0.00 in
11:41 49.6 °F 42.7 °F 30.25 in NW 7.0 mph 7.0 mph 77% 0.00 in
11:46 48.5 °F 40.6 °F 30.25 in WNW 4.0 mph 6.0 mph 74% 0.00 in
11:51 48.4 °F 41.2 °F 30.25 in WSW 2.0 mph 5.0 mph 76% 0.00 in
11:56 49.1 °F 41.2 °F 30.25 in NE 2.0 mph 6.0 mph 74% 0.00 in
12:01 49.5 °F 41.6 °F 30.25 in North 6.0 mph 8.0 mph 74% 0.00 in
12:06 49.7 °F 41.0 °F 30.25 in NW 5.0 mph 7.0 mph 72% 0.00 in
12:11 48.8 °F 40.5 °F 30.25 in NW 4.0 mph 7.0 mph 73% 0.00 in
12:16 49.0 °F 40.0 °F 30.24 in WNW 3.0 mph 6.0 mph 71% 0.00 in
12:22 49.7 °F 41.0 °F 30.24 in NW 9.0 mph 10.0 mph 72% 0.00 in
12:27 49.5 °F 40.5 °F 30.24 in WNW 3.0 mph 9.0 mph 71% 0.00 in
12:32 49.7 °F 40.7 °F 30.24 in WNW 3.0 mph 8.0 mph 71% 0.00 in
12:37 50.5 °F 42.2 °F 30.24 in NNW 7.0 mph 7.0 mph 73% 0.00 in
12:42 50.1 °F 39.6 °F 30.24 in NW 4.0 mph 8.0 mph 67% 0.00 in
12:47 50.0 °F 39.9 °F 30.23 in NW 7.0 mph 9.0 mph 68% 0.00 in
12:52 50.6 °F 40.4 °F 30.23 in WSW 3.0 mph 6.0 mph 68% 0.00 in
12:57 51.3 °F 41.1 °F 30.23 in NW 7.0 mph 11.0 mph 68% 0.00 in
13:02 50.4 °F 40.6 °F 30.23 in NNW 5.0 mph 8.0 mph 69% 0.00 in
13:07 49.6 °F 39.9 °F 30.22 in NW 3.0 mph 6.0 mph 69% 0.00 in
13:12 50.3 °F 40.2 °F 30.22 in NW 2.0 mph 6.0 mph 68% 0.00 in
13:17 50.8 °F 39.1 °F 30.22 in NNW 4.0 mph 7.0 mph 64% 0.00 in
13:22 51.7 °F 39.9 °F 30.21 in WNW 4.0 mph 6.0 mph 64% 0.00 in
13:27 52.2 °F 40.8 °F 30.21 in NW 4.0 mph 9.0 mph 65% 0.00 in
13:32 52.2 °F 40.4 °F 30.20 in NNW 5.0 mph 8.0 mph 64% 0.00 in
13:37 51.3 °F 40.0 °F 30.20 in NNW 2.0 mph 5.0 mph 65% 0.00 in
13:42 51.0 °F 40.1 °F 30.20 in NW 9.0 mph 9.0 mph 66% 0.00 in
13:47 50.7 °F 40.2 °F 30.19 in NW 5.0 mph 8.0 mph 67% 0.00 in
13:52 50.6 °F 39.3 °F 30.19 in NNW 2.0 mph 6.0 mph 65% 0.00 in
13:57 50.8 °F 39.9 °F 30.19 in NW 4.0 mph 9.0 mph 66% 0.00 in
14:02 51.1 °F 41.3 °F 30.19 in NW 6.0 mph 7.0 mph 69% 0.00 in
14:07 50.8 °F 39.9 °F 30.19 in WNW 4.0 mph 8.0 mph 66% 0.00 in
14:12 50.6 °F 39.7 °F 30.19 in NW 3.0 mph 7.0 mph 66% 0.00 in
14:17 51.2 °F 41.0 °F 30.19 in NW 8.0 mph 8.0 mph 68% 0.00 in
14:23 51.8 °F 41.2 °F 30.19 in NW 7.0 mph 7.0 mph 67% 0.00 in
14:28 52.0 °F 41.4 °F 30.18 in NNW 3.0 mph 7.0 mph 67% 0.00 in
14:33 52.1 °F 41.9 °F 30.18 in NW 8.0 mph 8.0 mph 68% 0.00 in
14:38 52.5 °F 40.7 °F 30.18 in NW 2.0 mph 9.0 mph 64% 0.00 in
14:43 52.6 °F 40.0 °F 30.18 in NW 4.0 mph 7.0 mph 62% 0.00 in
14:48 52.3 °F 40.1 °F 30.18 in WNW 6.0 mph 6.0 mph 63% 0.00 in
14:53 51.6 °F 40.2 °F 30.18 in WNW 3.0 mph 7.0 mph 65% 0.00 in
14:58 51.5 °F 39.3 °F 30.18 in West 2.0 mph 3.0 mph 63% 0.00 in
15:03 51.6 °F 40.2 °F 30.18 in WNW 5.0 mph 8.0 mph 65% 0.00 in
15:08 51.2 °F 39.5 °F 30.18 in West 1.0 mph 6.0 mph 64% 0.00 in
15:13 51.0 °F 39.7 °F 30.18 in NW 6.0 mph 6.0 mph 65% 0.00 in
15:18 51.8 °F 41.2 °F 30.18 in NNW 7.0 mph 7.0 mph 67% 0.00 in
15:23 51.8 °F 40.4 °F 30.18 in NNW 3.0 mph 6.0 mph 65% 0.00 in
15:28 51.6 °F 39.4 °F 30.18 in NNW 3.0 mph 4.0 mph 63% 0.00 in
15:33 52.0 °F 40.6 °F 30.17 in North 5.0 mph 5.0 mph 65% 0.00 in
15:38 52.6 °F 40.4 °F 30.18 in North 2.0 mph 5.0 mph 63% 0.00 in
15:43 53.3 °F 40.2 °F 30.18 in NW 6.0 mph 6.0 mph 61% 0.00 in
15:48 52.9 °F 40.7 °F 30.18 in NNW 6.0 mph 10.0 mph 63% 0.00 in
15:53 52.0 °F 40.2 °F 30.18 in North 6.0 mph 8.0 mph 64% 0.00 in
15:58 51.4 °F 40.8 °F 30.18 in NW 3.0 mph 5.0 mph 67% 0.00 in
16:03 51.7 °F 41.1 °F 30.18 in NNW 2.0 mph 4.0 mph 67% 0.00 in
16:08 51.9 °F 40.5 °F 30.18 in NW 2.0 mph 2.0 mph 65% 0.00 in
16:13 52.6 °F 40.4 °F 30.18 in NE 1.0 mph 6.0 mph 63% 0.00 in
16:18 52.7 °F 40.5 °F 30.17 in NNE 3.0 mph 5.0 mph 63% 0.00 in
16:23 52.8 °F 40.2 °F 30.18 in Calm   3.0 mph 62% 0.00 in
16:28 53.2 °F 40.5 °F 30.17 in NW 4.0 mph 8.0 mph 62% 0.00 in
16:33 53.3 °F 39.8 °F 30.18 in NW 6.0 mph 6.0 mph 60% 0.00 in
16:38 53.3 °F 39.8 °F 30.18 in NNE 4.0 mph 4.0 mph 60% 0.00 in
16:43 53.5 °F 40.4 °F 30.17 in NE 5.0 mph 6.0 mph 61% 0.00 in
16:49 53.2 °F 40.1 °F 30.18 in NNE 2.0 mph 7.0 mph 61% 0.00 in
16:54 53.3 °F 40.6 °F 30.18 in NNE 3.0 mph 9.0 mph 62% 0.00 in
16:59 53.3 °F 41.0 °F 30.18 in North 5.0 mph 6.0 mph 63% 0.00 in
17:04 53.1 °F 40.8 °F 30.18 in NE 7.0 mph 7.0 mph 63% 0.00 in
17:09 52.6 °F 40.4 °F 30.18 in NE 5.0 mph 8.0 mph 63% 0.00 in
17:14 52.1 °F 39.9 °F 30.18 in NE 4.0 mph 6.0 mph 63% 0.00 in
17:19 51.4 °F 39.7 °F 30.18 in NNE 5.0 mph 7.0 mph 64% 0.00 in
17:24 51.0 °F 40.1 °F 30.18 in NNE 2.0 mph 4.0 mph 66% 0.00 in
17:29 50.7 °F 39.8 °F 30.17 in North 2.0 mph 5.0 mph 66% 0.00 in
17:34 50.8 °F 39.9 °F 30.18 in North 2.0 mph 4.0 mph 66% 0.00 in
17:39 50.9 °F 40.3 °F 30.17 in North 3.0 mph 5.0 mph 67% 0.00 in
17:44 51.0 °F 40.1 °F 30.17 in North 3.0 mph 5.0 mph 66% 0.00 in
17:49 50.9 °F 40.0 °F 30.17 in NNW 3.0 mph 6.0 mph 66% 0.00 in
17:54 50.9 °F 40.0 °F 30.17 in NNW 2.0 mph 6.0 mph 66% 0.00 in
17:59 50.7 °F 40.2 °F 30.17 in North 3.0 mph 5.0 mph 67% 0.00 in
18:04 50.5 °F 40.0 °F 30.17 in NNE 2.0 mph 4.0 mph 67% 0.00 in
18:09 50.2 °F 39.7 °F 30.17 in North 2.0 mph 4.0 mph 67% 0.00 in
18:14 49.8 °F 39.7 °F 30.17 in North 3.0 mph 3.0 mph 68% 0.00 in
18:19 49.3 °F 39.6 °F 30.17 in North 4.0 mph 4.0 mph 69% 0.00 in
18:24 48.7 °F 39.4 °F 30.18 in North 2.0 mph 4.0 mph 70% 0.00 in
18:29 48.1 °F 39.2 °F 30.18 in North 2.0 mph 4.0 mph 71% 0.00 in
18:34 47.6 °F 39.0 °F 30.18 in NNW 3.0 mph 5.0 mph 72% 0.00 in
18:39 47.2 °F 39.0 °F 30.18 in North 2.0 mph 3.0 mph 73% 0.00 in
18:44 46.9 °F 39.1 °F 30.18 in NNW 2.0 mph 4.0 mph 74% 0.00 in
18:49 46.7 °F 38.9 °F 30.18 in NNW 2.0 mph 3.0 mph 74% 0.00 in
18:54 46.5 °F 39.0 °F 30.18 in NNW 2.0 mph 3.0 mph 75% 0.00 in
18:59 46.4 °F 38.9 °F 30.18 in North 2.0 mph 3.0 mph 75% 0.00 in
19:04 46.1 °F 38.6 °F 30.18 in North 2.0 mph 4.0 mph 75% 0.00 in
19:09 45.9 °F 38.8 °F 30.18 in North 1.0 mph 3.0 mph 76% 0.00 in
19:14 45.6 °F 38.5 °F 30.18 in North 2.0 mph 3.0 mph 76% 0.00 in
19:19 45.3 °F 38.5 °F 30.18 in North 1.0 mph 2.0 mph 77% 0.00 in
19:24 45.1 °F 38.3 °F 30.18 in North 2.0 mph 2.0 mph 77% 0.00 in
19:29 45.1 °F 38.7 °F 30.18 in NNW 2.0 mph 4.0 mph 78% 0.00 in
19:34 44.9 °F 38.5 °F 30.18 in North 3.0 mph 3.0 mph 78% 0.00 in
19:39 44.7 °F 38.3 °F 30.18 in North 3.0 mph 3.0 mph 78% 0.00 in
19:40 44.7 °F 38.3 °F 30.18 in North 3.0 mph 3.0 mph 78% 0.00 in
19:45 44.5 °F 38.4 °F 30.19 in NNW 3.0 mph 3.0 mph 79% 0.00 in
19:50 44.3 °F 38.2 °F 30.19 in North 2.0 mph 3.0 mph 79% 0.00 in
19:55 44.1 °F 38.3 °F 30.19 in North 1.0 mph 2.0 mph 80% 0.00 in
20:00 44.1 °F 38.3 °F 30.19 in NNW 2.0 mph 3.0 mph 80% 0.00 in
20:05 44.0 °F 38.2 °F 30.20 in North 2.0 mph 2.0 mph 80% 0.00 in
20:10 44.0 °F 38.2 °F 30.20 in Calm   2.0 mph 80% 0.00 in
20:15 43.9 °F 38.1 °F 30.20 in NNE 2.0 mph 2.0 mph 80% 0.00 in
20:20 43.9 °F 38.1 °F 30.20 in Calm   2.0 mph 80% 0.00 in
20:25 43.7 °F 38.0 °F 30.20 in North 1.0 mph 1.0 mph 80% 0.00 in
20:30 43.5 °F 38.1 °F 30.20 in NNE 1.0 mph 1.0 mph 81% 0.00 in
20:35 43.3 °F 37.9 °F 30.21 in NNE 1.0 mph 2.0 mph 81% 0.00 in
20:36 43.3 °F 37.9 °F 30.21 in NNE 1.0 mph 2.0 mph 81% 0.00 in
20:41 43.1 °F 38.0 °F 30.21 in NNW 2.0 mph 2.0 mph 82% 0.00 in
20:46 42.9 °F 37.8 °F 30.21 in North 2.0 mph 2.0 mph 82% 0.00 in
20:51 42.6 °F 37.8 °F 30.20 in NNE 2.0 mph 2.0 mph 83% 0.00 in
20:56 42.4 °F 37.6 °F 30.20 in NNE 1.0 mph 2.0 mph 83% 0.00 in
21:01 42.4 °F 37.6 °F 30.20 in North 1.0 mph 2.0 mph 83% 0.00 in
21:06 42.4 °F 37.6 °F 30.20 in NNE 1.0 mph 2.0 mph 83% 0.00 in
21:11 42.3 °F 37.5 °F 30.21 in North 1.0 mph 2.0 mph 83% 0.00 in
21:16 42.1 °F 37.3 °F 30.21 in North 2.0 mph 2.0 mph 83% 0.00 in
21:21 41.9 °F 37.4 °F 30.21 in NNW 1.0 mph 3.0 mph 84% 0.00 in
21:26 41.7 °F 37.2 °F 30.21 in North 3.0 mph 3.0 mph 84% 0.00 in
21:31 41.7 °F 37.2 °F 30.21 in NNW 1.0 mph 2.0 mph 84% 0.00 in
21:36 41.5 °F 37.0 °F 30.21 in North 2.0 mph 3.0 mph 84% 0.00 in
21:41 41.3 °F 37.1 °F 30.21 in North 1.0 mph 2.0 mph 85% 0.00 in
21:46 41.4 °F 37.2 °F 30.21 in North 2.0 mph 2.0 mph 85% 0.00 in
21:51 41.4 °F 37.2 °F 30.21 in NNE 1.0 mph 2.0 mph 85% 0.00 in
21:56 41.4 °F 37.2 °F 30.21 in NNE 2.0 mph 4.0 mph 85% 0.00 in
22:01 41.4 °F 36.9 °F 30.21 in North 2.0 mph 4.0 mph 84% 0.00 in
22:06 41.2 °F 37.0 °F 30.21 in North 2.0 mph 3.0 mph 85% 0.00 in
22:11 41.1 °F 36.9 °F 30.21 in NNE 1.0 mph 2.0 mph 85% 0.00 in
22:16 41.1 °F 36.9 °F 30.21 in North 1.0 mph 2.0 mph 85% 0.00 in
22:21 41.2 °F 37.0 °F 30.21 in NNE 1.0 mph 3.0 mph 85% 0.00 in
22:26 41.2 °F 36.7 °F 30.21 in NNE 2.0 mph 3.0 mph 84% 0.00 in
22:31 41.2 °F 37.0 °F 30.21 in NNE 1.0 mph 3.0 mph 85% 0.00 in
22:36 41.2 °F 37.0 °F 30.21 in Calm   2.0 mph 85% 0.00 in
22:41 41.3 °F 36.8 °F 30.21 in North 1.0 mph 2.0 mph 84% 0.00 in
22:46 41.2 °F 36.7 °F 30.21 in North 2.0 mph 2.0 mph 84% 0.00 in
22:51 41.1 °F 36.6 °F 30.21 in NNE 3.0 mph 3.0 mph 84% 0.00 in
22:56 41.1 °F 36.6 °F 30.21 in North 1.0 mph 2.0 mph 84% 0.00 in
23:01 40.8 °F 36.7 °F 30.21 in North 2.0 mph 2.0 mph 85% 0.00 in
23:06 40.6 °F 36.5 °F 30.21 in North 1.0 mph 2.0 mph 85% 0.00 in
23:11 40.4 °F 36.5 °F 30.21 in Calm   1.0 mph 86% 0.00 in
23:16 40.2 °F 36.3 °F 30.21 in Calm     86% 0.00 in
23:22 40.1 °F 36.5 °F 30.21 in Calm     87% 0.00 in
23:27 39.9 °F 36.3 °F 30.21 in Calm     87% 0.00 in
23:32 39.7 °F 36.2 °F 30.21 in Calm   1.0 mph 87% 0.00 in
23:37 39.5 °F 36.0 °F 30.21 in Calm     87% 0.00 in
23:42 39.3 °F 36.0 °F 30.21 in Calm     88% 0.00 in
23:47 39.1 °F 35.8 °F 30.21 in Calm     88% 0.00 in
23:52 39.0 °F 36.0 °F 30.21 in Calm     89% 0.00 in
23:57 38.8 °F 35.8 °F 30.21 in Calm     89% 0.00 in
Compliments of Weather Underground